Weather History for DeKalb, IL

Change the Weather History Date:

Saturday, October 12, 2013

  Actual Average (KARR) Record (KARR)
Temperature  
Mean Temperature 60 °F 52 °F  
Max Temperature 69 °F 64 °F 84 °F (2008)
Min Temperature 50 °F 40 °F 28 °F (2006)
Degree Days  
Heating Degree Days 6 13  
Month to date heating degree days 140  
Since 1 July heating degree days 293  
Cooling Degree Days 0 0  
Month to date cooling degree days 9  
Year to date cooling degree days 656  
Growing Degree Days 10 (Base 50)    
Moisture  
Dew Point 54 °F    
Average Humidity 79    
Maximum Humidity 91    
Minimum Humidity 43    
Precipitation  
Precipitation 0.18 in 0.10 in 0.59 in (2001)
Month to date precipitation 1.22  
Year to date precipitation 29.86  
Sea Level Pressure  
Sea Level Pressure 30.02 in    
Wind  
Wind Speed 10 mph (SSW)    
Max Wind Speed 14 mph    
Max Gust Speed 21 mph    
Visibility 9 miles    
Events Rain , Thunderstorm    
T = Trace of Precipitation, MM = Missing Value Source: NWS Daily Summary

Daily Weather History Graph

Daily Weather History Graph

Search for Another Location

Airport:

Trip Planner

Search our weather history database for the weather conditions in past years. The results will help you decide how hot, cold, wet, or windy it might be!

Date:

Astronomy

Oct. 12, 2013 Rise Set
Actual Time 7:04 AM CDT 6:17 PM CDT
Civil Twilight 6:36 AM CDT 6:45 PM CDT
Nautical Twilight 6:03 AM CDT 7:17 PM CDT
Astronomical Twilight 5:31 AM CDT 7:50 PM CDT
Moon 2:32 PM CDT (10/12) 12:01 AM CDT (10/12)
Length of Visible Light 12h 09m
Length of Day
11h 13m
First Quarter, 59% of the Moon is Illuminated
Oct 12
First Quarter
Oct 18
Full
Oct 26
Last Quarter
Nov 3
New
Nov 9
First Quarter

Hourly Weather History & Observations

Time (CDT) Temp. Dew Point Humidity Pressure Visibility Wind Dir Wind Speed Gust Speed Precip Events Conditions
12:15 AM 59.2 °F 54.0 °F 83% 29.97 in 10.0 mi SSE 9.2 mph - N/A   Clear
12:35 AM 59.0 °F 54.0 °F 83% 29.96 in 10.0 mi SE 9.2 mph - N/A   Clear
12:55 AM 59.7 °F 54.5 °F 83% 29.96 in 10.0 mi SE 11.5 mph - N/A   Clear
1:15 AM 60.4 °F 55.2 °F 83% 29.96 in 10.0 mi SSE 10.4 mph - N/A   Clear
1:35 AM 59.9 °F 54.7 °F 83% 29.96 in 10.0 mi SSE 8.1 mph - N/A   Clear
1:55 AM 60.3 °F 55.4 °F 84% 29.97 in 10.0 mi SSE 9.2 mph - N/A   Clear
2:15 AM 59.7 °F 54.9 °F 84% 29.97 in 10.0 mi SSE 10.4 mph - N/A   Clear
2:35 AM 59.2 °F 54.7 °F 85% 29.97 in 10.0 mi SSE 9.2 mph - N/A   Clear
2:55 AM 59.2 °F 54.7 °F 85% 29.97 in 10.0 mi SSE 10.4 mph - N/A   Clear
3:15 AM 59.2 °F 54.7 °F 85% 29.97 in 10.0 mi SSE 9.2 mph - N/A   Clear
3:35 AM 59.0 °F 54.7 °F 86% 29.97 in 10.0 mi SSE 8.1 mph - N/A   Clear
3:55 AM 58.5 °F 54.5 °F 87% 29.96 in 10.0 mi SSE 8.1 mph - N/A   Clear
4:15 AM 58.5 °F 54.5 °F 87% 29.96 in 10.0 mi SSE 9.2 mph - N/A   Clear
4:35 AM 58.5 °F 54.5 °F 87% 29.96 in 10.0 mi SSE 10.4 mph - N/A   Scattered Clouds
4:55 AM 58.8 °F 54.7 °F 86% 29.96 in 10.0 mi SSE 11.5 mph - N/A   Scattered Clouds
5:15 AM 58.6 °F 54.7 °F 87% 29.96 in 10.0 mi SSE 11.5 mph - N/A   Scattered Clouds
5:35 AM 58.5 °F 54.7 °F 87% 29.96 in 10.0 mi SSE 11.5 mph - N/A   Scattered Clouds
5:55 AM 58.3 °F 54.7 °F 88% 29.96 in 10.0 mi SSE 9.2 mph - N/A   Mostly Cloudy
6:15 AM 58.1 °F 54.5 °F 88% 29.96 in 7.0 mi SSE 9.2 mph - N/A   Mostly Cloudy
6:35 AM 59.0 °F 55.2 °F 87% 29.96 in 10.0 mi SSE 8.1 mph - N/A   Mostly Cloudy
6:55 AM 59.2 °F 55.4 °F 87% 29.96 in 10.0 mi SSE 10.4 mph - N/A   Mostly Cloudy
7:15 AM 59.5 °F 55.6 °F 87% 29.96 in 7.0 mi SSE 13.8 mph - N/A   Overcast
7:55 AM 60.1 °F 56.1 °F 87% 29.98 in 10.0 mi SSE 10.4 mph - N/A   Mostly Cloudy
8:35 AM 61.0 °F 56.8 °F 86% 29.98 in 10.0 mi SSE 11.5 mph - N/A Rain Light Rain
8:55 AM 61.7 °F 58.1 °F 88% 29.98 in 7.0 mi South 10.4 mph - N/A Rain Light Rain
9:15 AM 61.0 °F 57.7 °F 89% 29.98 in 7.0 mi SSE 10.4 mph - N/A   Scattered Clouds
9:35 AM 62.4 °F 58.6 °F 87% 29.98 in 10.0 mi South 10.4 mph - N/A   Mostly Cloudy
9:55 AM 64.4 °F 60.3 °F 86% 29.98 in 10.0 mi South 11.5 mph - N/A   Mostly Cloudy
10:15 AM 63.5 °F 59.5 °F 87% 29.99 in 10.0 mi SSW 9.2 mph - N/A   Mostly Cloudy
10:35 AM 63.7 °F 59.5 °F 86% 30.00 in 10.0 mi WSW 9.2 mph - N/A   Overcast
10:55 AM 64.4 °F 60.3 °F 86% 30.01 in 10.0 mi SSW 10.4 mph - N/A   Overcast
11:15 AM 64.8 °F 60.4 °F 86% 30.01 in 10.0 mi South 10.4 mph - N/A   Overcast
11:35 AM 64.4 °F 60.1 °F 86% 30.01 in 10.0 mi South 8.1 mph - N/A   Overcast
11:55 AM 64.6 °F 60.4 °F 86% 30.00 in 10.0 mi South 9.2 mph - N/A   Overcast
12:15 PM 63.5 °F 59.9 °F 88% 30.01 in 4.0 mi South 10.4 mph - 0.05 in Rain , Thunderstorm Heavy Thunderstorms and Rain
12:35 PM 63.0 °F 60.3 °F 91% 30.01 in 3.0 mi SSW 9.2 mph - 0.18 in Rain , Thunderstorm Light Thunderstorms and Rain
12:55 PM 64.4 °F 61.3 °F 90% 30.01 in 4.0 mi South 10.4 mph - 0.18 in   Mostly Cloudy
1:15 PM 64.9 °F 62.1 °F 90% 29.99 in 4.0 mi South 9.2 mph - N/A   Mostly Cloudy
1:35 PM 66.2 °F 63.3 °F 90% 29.99 in 5.0 mi South 9.2 mph - N/A   Overcast
1:55 PM 65.8 °F 62.8 °F 90% 30.00 in 5.0 mi SSW 8.1 mph - N/A   Overcast
2:15 PM 66.9 °F 63.5 °F 89% 30.00 in 5.0 mi SW 10.4 mph - N/A   Mostly Cloudy
2:35 PM 66.7 °F 63.0 °F 88% 30.01 in 7.0 mi WSW 9.2 mph - N/A   Mostly Cloudy
2:55 PM 67.1 °F 62.6 °F 85% 30.01 in 10.0 mi WSW 12.7 mph 17.3 mph N/A   Overcast
3:15 PM 67.8 °F 62.1 °F 82% 30.01 in 10.0 mi WSW 12.7 mph - N/A   Mostly Cloudy
3:35 PM 68.9 °F 60.6 °F 75% 30.01 in 10.0 mi West 11.5 mph - N/A   Scattered Clouds
3:55 PM 69.3 °F 55.9 °F 62% 30.02 in 10.0 mi West 13.8 mph 20.7 mph N/A   Clear
4:15 PM 69.3 °F 54.7 °F 60% 30.02 in 10.0 mi West 11.5 mph 18.4 mph N/A   Clear
4:55 PM 69.3 °F 49.3 °F 49% 30.03 in 10.0 mi West 13.8 mph - N/A   Clear
5:15 PM 68.5 °F 45.9 °F 44% 30.04 in 10.0 mi West 13.8 mph 19.6 mph N/A   Clear
5:35 PM 67.1 °F 43.7 °F 43% 30.05 in 10.0 mi West 11.5 mph 17.3 mph N/A   Clear
5:55 PM 65.3 °F 44.4 °F 47% 30.06 in 10.0 mi West 12.7 mph 19.6 mph N/A   Clear
6:15 PM 64.4 °F 44.6 °F 49% 30.07 in 10.0 mi West 9.2 mph - N/A   Clear
6:55 PM 61.2 °F 45.5 °F 56% 30.08 in 10.0 mi West 8.1 mph - N/A   Clear
7:35 PM 58.3 °F 45.9 °F 63% 30.10 in 10.0 mi West 8.1 mph - N/A   Clear
7:55 PM 58.1 °F 45.5 °F 63% 30.10 in 10.0 mi WNW 9.2 mph - N/A   Clear
8:15 PM 58.1 °F 45.5 °F 63% 30.11 in 10.0 mi WNW 8.1 mph - N/A   Clear
8:35 PM 56.3 °F 44.8 °F 65% 30.12 in 10.0 mi WNW 8.1 mph - N/A   Clear
8:55 PM 55.4 °F 45.0 °F 68% 30.13 in 10.0 mi WNW 6.9 mph - N/A   Clear
9:15 PM 54.9 °F 44.6 °F 68% 30.13 in 10.0 mi WNW 6.9 mph - N/A   Clear
9:35 PM 54.7 °F 44.2 °F 68% 30.14 in 10.0 mi WNW 8.1 mph - N/A   Clear
9:55 PM 53.8 °F 44.4 °F 71% 30.15 in 10.0 mi WNW 5.8 mph - N/A   Clear
10:15 PM 53.6 °F 44.2 °F 71% 30.16 in 10.0 mi NW 6.9 mph - N/A   Clear
10:35 PM 52.9 °F 44.6 °F 73% 30.17 in 10.0 mi WNW 5.8 mph - N/A   Clear
10:55 PM 51.8 °F 43.9 °F 74% 30.18 in 10.0 mi WNW 5.8 mph - N/A   Clear
11:15 PM 50.9 °F 43.7 °F 76% 30.19 in 10.0 mi WNW 5.8 mph - N/A   Clear
11:35 PM 51.8 °F 43.9 °F 74% 30.19 in 10.0 mi WNW 4.6 mph - N/A   Clear
11:55 PM 51.4 °F 43.7 °F 75% 30.20 in 10.0 mi WNW 5.8 mph - N/A   Clear